Location: Observatoire
(46.1952°N, 5.3391°E)
Time: 15:10:19
(UTC+01:00)

A-11 Canister half - Pass Details

Date: 25 February 2026
Orbit: 1513 x 1687 km, 47.2° (Epoch: 11 March)

Event Time Altitude Azimuth Distance (km) Brightness Sun altitude
Rises 18:43:56 0° 214° (SW) 4,911 12.3 -5.1°
Reaches altitude 10° 18:47:15 10° 209° (SSW) 3,935 11.7 -5.6°
Maximum altitude 18:56:39 45° 141° (SE) 2,174 9.6 -7.3°
Drops below altitude 10° 19:06:01 10° 73° (ENE) 3,926 10.5 -8.9°
Enters shadow 19:06:22 - 72° (ENE) 4,026 10.6 -8.9°
Sets 19:09:19 0° 67° (ENE) 4,900 - -9.4°
